Location: Cactus School
(34.5700°N, 118.0931°W)
Time: 09:39:05
(UTC-07:00)

Vanguard 1 Rocket - Pass Details

Date: 17 April 2024
Orbit: 650 x 4220 km, 34.3° (Epoch: 22 May)

Event Time Altitude Azimuth Distance (km) Brightness Sun altitude
Rises 01:50:35 0° 283° (WNW) 5,040 11.2 -42.6°
Enters shadow 01:52:03 - 280° (W) 4,699 10.9 -42.5°
Exits shadow 02:18:26 26° 153° (SSE) 5,532 11.0 -40.3°
Drops below altitude 10° 02:27:26 10° 142° (SE) 7,251 11.8 -39.4°
Sets 02:33:57 0° 138° (SE) 8,435 12.2 -38.7°
